Location: Cronhütte
(48.9135°N, 9.6869°E)
Time: 09:41:46
(UTC+00:00)

FORMOSAT 3E - Visible Passes

Search period start: 30 April 2025 00:00
Search period end: 10 May 2025 00:00
Orbit: 742 x 834 km, 72.0° (Epoch: 28 April)

Date Brightness Start Highest point End Pass type
(mag) Time Alt. Az. Time Alt. Az. Time Alt. Az.
30 Apr 8.1 00:10:59 10° NNW 00:15:42 56° W 00:15:42 56° W visible
30 Apr 10.0 21:57:43 10° N 22:01:31 20° NE 22:04:17 14° E visible
30 Apr 7.8 23:39:45 10° NNW 23:44:55 81° WSW 23:44:57 81° WSW visible
01 May 10.1 01:24:50 10° WNW 01:25:37 11° W 01:25:37 11° W visible
01 May 10.3 21:26:54 10° N 21:30:04 16° NE 21:33:14 10° ENE visible
01 May 7.9 23:08:35 10° NNW 23:13:45 73° ENE 23:14:14 68° ESE visible
02 May 9.8 00:52:31 10° WNW 00:54:54 17° W 00:54:54 17° W visible
02 May 10.4 20:56:19 10° N 20:58:32 13° NE 21:00:47 10° ENE visible
02 May 8.4 22:37:29 10° NNW 22:42:31 53° ENE 22:43:32 46° E visible
03 May 9.4 00:20:47 10° NW 00:24:12 24° W 00:24:12 24° W visible
03 May 8.9 22:06:25 10° NNW 22:11:15 39° NE 22:12:52 31° E visible
03 May 8.9 23:49:16 10° NW 23:53:32 35° W 23:53:32 35° W visible
04 May 9.4 21:35:26 10° N 21:39:55 29° NE 21:42:13 21° E visible
04 May 8.3 23:17:55 10° NW 23:22:54 50° WSW 23:22:54 50° WSW visible
05 May 9.7 21:04:29 10° N 21:08:32 23° NE 21:11:36 14° E visible
05 May 7.9 22:46:39 10° NNW 22:51:48 72° WSW 22:52:16 67° SSW visible
06 May 10.3 00:32:40 10° W 00:32:57 10° W 00:32:57 10° W visible
06 May 10.0 20:33:38 10° N 20:37:05 18° NE 20:40:33 10° E visible
06 May 7.9 22:15:27 10° NNW 22:20:39 82° ENE 22:21:41 58° SE visible
06 May 9.9 23:59:41 10° WNW 00:02:21 16° W 00:02:21 16° W visible
07 May 10.2 20:02:55 10° N 20:05:34 14° NE 20:08:14 10° ENE visible
07 May 8.2 21:44:19 10° NNW 21:49:27 60° ENE 21:51:06 40° ESE visible
07 May 9.5 23:27:49 10° NW 23:31:46 22° W 23:31:47 22° WSW visible
08 May 10.4 19:32:36 10° NNE 19:34:00 11° NNE 19:35:24 10° NE visible
08 May 8.7 21:13:13 10° NNW 21:18:11 43° NE 21:20:33 27° ESE visible
08 May 9.0 22:56:14 10° NW 23:00:47 31° WSW 23:01:14 31° WSW visible
09 May 9.1 20:42:12 10° NNW 20:46:51 32° NE 20:50:02 18° ESE visible
09 May 8.5 22:24:49 10° NW 22:29:44 44° WSW 22:30:42 40° SW visible
